Preview of NWS' New Version of Forecast
This preview is not operational and should not be used for support decisions.

Regional Weather Roundup (RWR)

Issued by National Weather Service (NWS)

                            
000
ASUS43 KDMX 211801
RWRIA 

WEATHER ROUNDUP FOR IOWA
NATIONAL WEATHER SERVICE DES MOINES IA
1200 PM CST THU FEB 21 2019

NOTE: "FAIR" INDICATES FEW OR NO CLOUDS BELOW 12,000 FEET WITH NO
SIGNIFICANT WEATHER AND/OR OBSTRUCTIONS TO VISIBILITY.

* - THESE STATIONS ARE NOT NWS STATIONS...THUS NOT UNDER NWS
QUALITY CONTROL.  THEY ALSO DO NOT REPORT WEATHER SUCH 
AS PRECIPITATION OR FOG.  

IAZ001>003-012>014-020>022-031>034-043>046-211900-
   NORTHWEST IOWA
  
CITY           SKY/WX    TMP DP  RH WIND       PRES   REMARKS
CARROLL *      SUNNY     23  16  74 W7        30.22R WCI  15          
CHEROKEE *     SUNNY     15  11  81 W3        30.23R                  
DENISON *      SUNNY     21  14  73 CALM      30.23S                  
LE MARS *      SUNNY     14  10  85 SW5       30.24R WCI   6          
ORANGE CITY *  CLOUDY    12  10  92 W6        30.20R WCI   3          
SHELDON *      CLOUDY     9   9 100 W6        30.18S WCI  -1          
SIOUX CITY     CLOUDY    17   9  70 W5        30.23S WCI  10          
6HR MIN TEMP: -10; 6HR MAX TEMP:  17;                                

SPENCER        SUNNY     13   7  77 W10       30.20R WCI   0          
6HR MIN TEMP:  -2; 6HR MAX TEMP:  13;                                

STORM LAKE *   SUNNY     14  10  85 W12       30.20R WCI   0          
$$
 
IAZ055>058-069>071-079>083-090>094-211900-
   SOUTHWEST IOWA
  
CITY           SKY/WX    TMP DP  RH WIND       PRES   REMARKS
ATLANTIC *     SUNNY     19  19 100 N5        30.22F WCI  13          
AUDUBON *      SUNNY     25  16  68 CALM      30.21F                  
CLARINDA *     CLOUDY    23  14  68 CALM      30.26S                  
COUNCIL BLFS * SUNNY     25  16  68 N7        30.20F WCI  17          
CRESTON *      SUNNY     27  18  69 W5        30.22S WCI  21          
HARLAN  *      MOSUNNY   19  14  79 CALM      30.23S                  
LAMONI         MOSUNNY   29  18  63 CALM      30.22R                  
6HR MIN TEMP:  11; 6HR MAX TEMP:  29;                                

RED OAK *      SUNNY     23  16  74 N6        30.23F WCI  16          
SHENANDOAH *   CLOUDY    23  16  74 NE5       30.24S WCI  17          
$$
 
IAZ047>049-059>061-072>074-084-211900-
   CENTRAL IOWA
  
CITY           SKY/WX    TMP DP  RH WIND       PRES   REMARKS
AMES           SUNNY     25  14  63 N5        30.24R WCI  19          
6HR MIN TEMP:   0; 6HR MAX TEMP:  25;                                

ANKENY *       SUNNY     25  16  68 NE5       30.25S WCI  19          
BOONE *        SUNNY     25  14  63 NW7       30.23R WCI  17          
DES MOINES     MOSUNNY   29  16  58 NW8       30.24R WCI  21          
6HR MIN TEMP:   9; 6HR MAX TEMP:  29;                                

GRINNELL*      SUNNY     22  15  75 NW8       30.24R WCI  12          
KNOXVILLE *    SUNNY     25  25 100 NW6       30.23F WCI  18          
MARSHALLTOWN   SUNNY     19  13  77 NW8       30.23R WCI   9          
6HR MIN TEMP:   3; 6HR MAX TEMP:  19;                                

NEWTON *       SUNNY     23  16  74 CALM      30.23S                  
PELLA *        SUNNY     28  15  58 N5        30.26R WCI  23          
PERRY *        FAIR      22  16  76 W5        30.24R WCI  16          
$$
 
IAZ004>006-015-016-023>025-035-036-211900-
   NORTH CENTRAL IOWA
  
CITY           SKY/WX    TMP DP  RH WIND       PRES   REMARKS
ALGONA *       SUNNY     12  10  92 W14       30.19S WCI  -3          
CLARION *      SUNNY     16  12  86 W13       30.21S WCI   2          
ESTHERVILLE    SUNNY     11   7  84 W12       30.19R WCI  -3          
6HR MIN TEMP:  -3; 6HR MAX TEMP:  12;                                

FORT DODGE *   SUNNY     23  12  62 W10       30.23R WCI  12          
MASON CITY     SUNNY     13   8  81 W15       30.21R WCI  -3          
6HR MIN TEMP:   5; 6HR MAX TEMP:  13;                                

FOREST CITY *  FAIR      16  10  79 W6        30.20R WCI   7          
IOWA FALLS *   FAIR      20  14  76 W12       30.23S WCI   8          
$$

IAZ007>011-017>019-026>030-037>042-050>054-066-211900-
   NORTHEAST IOWA
  
CITY           SKY/WX    TMP DP  RH WIND       PRES   REMARKS
CEDAR RAPIDS   FAIR      19  14  81 W12       30.23R WCI   7          
6HR MIN TEMP:   7; 6HR MAX TEMP:  19;                                

CHARLES CITY * FAIR      16   9  73 SW9       30.21R WCI   4          
CLINTON *      FAIR      27  19  72 W10       30.24R WCI  17          
DECORAH *      FAIR      16  10  79 SW9       30.19R WCI   4          
DUBUQUE        FAIR      20  11  68 W14       30.19R WCI   7          
6HR MIN TEMP:   8; 6HR MAX TEMP:  20;                                

OELWEIN *      FAIR      16  12  86 W10       30.21S WCI   3          
WATERLOO         N/A     20  12  71 MISG      30.22S                  
6HR MIN TEMP:   7; 6HR MAX TEMP:  20; 6HR PCP:  0.01;                

$$
 
IAZ064-065-067-068-078-211900-
   EAST CENTRAL IOWA
  
CITY           SKY/WX    TMP DP  RH WIND       PRES   REMARKS
DAVENPORT      FAIR      25  17  72 W10       30.26R WCI  15          
6HR MIN TEMP:  16; 6HR MAX TEMP:  25;                                

IOWA CITY      FAIR      24  15  68 W7        30.27R WCI  16          
6HR MIN TEMP:   6; 6HR MAX TEMP:  24;                                

MT. PLEASANT * MOSUNNY   32  21  64 NE5       30.27R WCI  27          
MUSCATINE *    FAIR      28  14  54 W8        30.28S WCI  20          
QUAD CITIES    FAIR      31  18  58 W8        30.24R WCI  23          
6HR MIN TEMP:  20; 6HR MAX TEMP:  31;                                

$$
 
IAZ062-063-075>077-085>089-095>099-211900-
   SOUTHEAST IOWA
  
CITY           SKY/WX    TMP DP  RH WIND       PRES   REMARKS
BURLINGTON     CLOUDY    32  18  56 N10       30.26S WCI  24          
6HR MIN TEMP:  21; 6HR MAX TEMP:  32;                                

FAIRFIELD *    SUNNY     25  14  63 VRB3      30.26R                  
FORT MADISON * MOSUNNY   32  21  64 NW8       30.28R WCI  25          
KEOKUK *       MOSUNNY   34  21  60 VRB3      30.25F                  
OSKALOOSA *    FAIR      27  16  63 CALM      30.25S                  
OTTUMWA        SUNNY     27  15  61 N6        30.25R WCI  20          
6HR MIN TEMP:   7; 6HR MAX TEMP:  27;                                

WASHINGTON *   SUNNY     27  16  63 W6        30.28R WCI  20          
$$

ABBREVIATIONS USED IN REMARKS
   TC - TEMPERATURES IN CELSIUS
  WCI - WIND CHILL INDEX
   HX - HEAT INDEX
  VSB - VISIBILITY  
$$